| time (UTC) | temp F | wind direction | speed MPH | gust MPH | rain 1hr in | rain 24hr in | rain mn in | humidity % | barometer mb |
| 20260507130006 | 56 | 83 | 5.0 | 10.0 | 0.00 | 0.00 | 0.00 | 76 | 1014.8 |
| 20260507125505 | 57 | 97 | 4.0 | 10.0 | 0.00 | 0.00 | 0.00 | 74 | 1014.7 |
| 20260507125006 | 58 | 105 | 2.0 | 10.0 | 0.00 | 0.00 | 0.00 | 71 | 1014.7 |
| 20260507124506 | 59 | 123 | 4.0 | 6.0 | 0.00 | 0.00 | 0.00 | 66 | 1014.7 |
| 20260507124006 | 59 | 134 | 4.0 | 8.0 | 0.00 | 0.00 | 0.00 | 61 | 1014.7 |
| 20260507123506 | 59 | 133 | 2.0 | 8.0 | 0.00 | 0.00 | 0.00 | 61 | 1014.7 |
| 20260507123006 | 59 | 144 | 1.0 | 7.0 | 0.00 | 0.00 | 0.00 | 63 | 1014.7 |
| 20260507122505 | 58 | 157 | 2.0 | 6.0 | 0.00 | 0.00 | 0.00 | 65 | 1014.7 |
| 20260507122006 | 58 | 158 | 4.0 | 7.0 | 0.00 | 0.00 | 0.00 | 64 | 1014.8 |
| 20260507121506 | 58 | 166 | 4.0 | 8.0 | 0.00 | 0.00 | 0.00 | 64 | 1014.7 |
| 20260507120006 | 59 | 171 | 5.0 | 10.0 | 0.00 | 0.00 | 0.00 | 62 | 1014.7 |
| 20260507115506 | 59 | 173 | 5.0 | 11.0 | 0.00 | 0.00 | 0.00 | 61 | 1014.7 |
| 20260507115005 | 60 | 167 | 4.0 | 11.0 | 0.00 | 0.00 | 0.00 | 57 | 1014.7 |
| 20260507114506 | 60 | 165 | 2.0 | 9.0 | 0.00 | 0.00 | 0.00 | 55 | 1014.7 |
| 20260507114006 | 60 | 173 | 2.0 | 7.0 | 0.00 | 0.00 | 0.00 | 54 | 1014.7 |
| 20260507113506 | 60 | 172 | 2.0 | 7.0 | 0.00 | 0.00 | 0.00 | 56 | 1014.7 |
| 20260507113006 | 60 | 175 | 2.0 | 7.0 | 0.00 | 0.00 | 0.00 | 52 | 1014.7 |
| 20260507112506 | 60 | 202 | 2.0 | 7.0 | 0.00 | 0.00 | 0.00 | 53 | 1014.7 |
| 20260507111506 | 61 | 192 | 4.0 | 8.0 | 0.00 | 0.00 | 0.00 | 53 | 1014.7 |
| 20260507111006 | 61 | 184 | 5.0 | 8.0 | 0.00 | 0.00 | 0.00 | 55 | 1014.7 |
| 20260507110006 | 62 | 161 | 4.0 | 10.0 | 0.00 | 0.00 | 0.00 | 53 | 1014.7 |
| 20260507105506 | 62 | 164 | 5.0 | 11.0 | 0.00 | 0.00 | 0.00 | 53 | 1014.8 |
| 20260507105006 | 63 | 173 | 5.0 | 11.0 | 0.00 | 0.00 | 0.00 | 54 | 1014.8 |
| 20260507104506 | 62 | 155 | 4.0 | 8.0 | 0.00 | 0.00 | 0.00 | 57 | 1014.7 |
| 20260507104005 | 61 | 163 | 2.0 | 6.0 | 0.00 | 0.00 | 0.00 | 59 | 1014.8 |
| 20260507103505 | 60 | 192 | 4.0 | 7.0 | 0.00 | 0.00 | 0.00 | 61 | 1014.8 |
| 20260507103006 | 60 | 208 | 4.0 | 7.0 | 0.00 | 0.00 | 0.00 | 60 | 1014.8 |
| 20260507102007 | 60 | 204 | 4.0 | 7.0 | 0.00 | 0.00 | 0.00 | 63 | 1014.9 |
| 20260507101507 | 60 | 211 | 2.0 | 7.0 | 0.00 | 0.00 | 0.00 | 63 | 1014.9 |
| 20260507101006 | 60 | 206 | 2.0 | 7.0 | 0.00 | 0.00 | 0.00 | 64 | 1014.9 |
| 20260507100506 | 60 | 194 | 2.0 | 7.0 | 0.00 | 0.00 | 0.00 | 61 | 1014.9 |
| 20260507100006 | 60 | 209 | 2.0 | 7.0 | 0.00 | 0.00 | 0.00 | 58 | 1014.9 |
| 20260507095506 | 60 | 225 | 2.0 | 6.0 | 0.00 | 0.00 | 0.00 | 60 | 1014.8 |
| 20260507095006 | 60 | 222 | 4.0 | 8.0 | 0.00 | 0.00 | 0.00 | 62 | 1014.9 |
| 20260507094506 | 60 | 203 | 4.0 | 8.0 | 0.00 | 0.00 | 0.00 | 60 | 1014.9 |
| 20260507094006 | 61 | 177 | 4.0 | 8.0 | 0.00 | 0.00 | 0.00 | 59 | 1014.9 |
| 20260507093006 | 60 | 171 | 4.0 | 7.0 | 0.00 | 0.00 | 0.00 | 59 | 1014.9 |
| 20260507092506 | 60 | 163 | 4.0 | 9.0 | 0.00 | 0.00 | 0.00 | 57 | 1014.9 |
| 20260507092006 | 60 | 144 | 4.0 | 9.0 | 0.00 | 0.00 | 0.00 | 60 | 1014.9 |
| 20260507091007 | 60 | 152 | 2.0 | 7.0 | 0.00 | 0.00 | 0.00 | 65 | 1014.9 |
| 20260507090506 | 60 | 140 | 2.0 | 8.0 | 0.00 | 0.00 | 0.00 | 64 | 1014.9 |
| 20260507090006 | 59 | 193 | 2.0 | 8.0 | 0.00 | 0.00 | 0.00 | 66 | 1014.9 |
| 20260507085505 | 59 | 223 | 2.0 | 7.0 | 0.00 | 0.00 | 0.00 | 69 | 1015.0 |
| 20260507085006 | 58 | 199 | 2.0 | 7.0 | 0.00 | 0.00 | 0.00 | 69 | 1015.0 |
| 20260507084506 | 58 | 191 | 4.0 | 8.0 | 0.00 | 0.00 | 0.00 | 69 | 1015.1 |
| 20260507084006 | 58 | 165 | 4.0 | 8.0 | 0.00 | 0.00 | 0.00 | 69 | 1015.1 |
| 20260507083505 | 58 | 141 | 4.0 | 7.0 | 0.00 | 0.00 | 0.00 | 72 | 1015.0 |
| 20260507083006 | 58 | 153 | 4.0 | 7.0 | 0.00 | 0.00 | 0.00 | 71 | 1015.0 |
| 20260507082505 | 58 | 179 | 2.0 | 6.0 | 0.00 | 0.00 | 0.00 | 72 | 1015.0 |
| 20260507082006 | 57 | 175 | 4.0 | 8.0 | 0.00 | 0.00 | 0.00 | 74 | 1015.0 |
| 20260507081505 | 56 | 164 | 2.0 | 8.0 | 0.00 | 0.00 | 0.00 | 73 | 1015.1 |
| 20260507081006 | 56 | 131 | 1.0 | 5.0 | 0.00 | 0.00 | 0.00 | 75 | 1015.0 |
| 20260507080505 | 55 | 105 | 1.0 | 3.0 | 0.00 | 0.00 | 0.00 | 77 | 1015.1 |
| 20260507075505 | 54 | 72 | 1.0 | 3.0 | 0.00 | 0.00 | 0.00 | 80 | 1015.1 |
| 20260507075006 | 53 | 88 | 1.0 | 3.0 | 0.00 | 0.00 | 0.00 | 81 | 1015.1 |
| 20260507074505 | 52 | 102 | 1.0 | 3.0 | 0.00 | 0.00 | 0.00 | 81 | 1015.1 |
| 20260507074005 | 51 | 0 | 0.0 | 2.0 | 0.00 | 0.00 | 0.00 | 82 | 1015.1 |
| 20260507073506 | 51 | 0 | 0.0 | 2.0 | 0.00 | 0.00 | 0.00 | 82 | 1015.1 |
| 20260507073006 | 51 | 67 | 1.0 | 3.0 | 0.00 | 0.00 | 0.00 | 83 | 1015.1 |
| 20260507072505 | 50 | 97 | 1.0 | 3.0 | 0.00 | 0.00 | 0.00 | 84 | 1015.1 |
| 20260507072006 | 50 | 0 | 0.0 | 3.0 | 0.00 | 0.00 | 0.00 | 85 | 1015.0 |
| 20260507071505 | 49 | 0 | 0.0 | 3.0 | 0.00 | 0.00 | 0.00 | 86 | 1015.0 |
| 20260507070506 | 48 | 0 | 0.0 | 2.0 | 0.00 | 0.00 | 0.00 | 87 | 1015.0 |
| 20260507070010 | 48 | 58 | 1.0 | 3.0 | 0.00 | 0.00 | 0.00 | 88 | 1015.0 |
| 20260507065506 | 47 | 32 | 1.0 | 5.0 | 0.00 | 0.00 | 0.00 | 88 | 1015.0 |
| 20260507064506 | 47 | 290 | 1.0 | 3.0 | 0.00 | 0.00 | 0.00 | 90 | 1014.9 |
| 20260507064006 | 47 | 283 | 1.0 | 3.0 | 0.00 | 0.00 | 0.00 | 90 | 1014.9 |
| 20260507063006 | 46 | 251 | 1.0 | 3.0 | 0.00 | 0.00 | 0.00 | 91 | 1014.9 |
| 20260507062506 | 46 | 255 | 1.0 | 5.0 | 0.00 | 0.00 | 0.00 | 91 | 1014.8 |
| 20260507062008 | 45 | 257 | 2.0 | 5.0 | 0.00 | 0.00 | 0.00 | 92 | 1014.9 |
| 20260507061006 | 45 | 339 | 2.0 | 7.0 | 0.00 | 0.00 | 0.00 | 93 | 1014.8 |
| 20260507060006 | 44 | 63 | 4.0 | 9.0 | 0.00 | 0.00 | 0.00 | 93 | 1014.4 |
| 20260507055506 | 44 | 60 | 2.0 | 8.0 | 0.00 | 0.00 | 0.00 | 93 | 1014.4 |
| 20260507054506 | 44 | 48 | 2.0 | 6.0 | 0.00 | 0.00 | 0.00 | 94 | 1014.5 |
| 20260507054006 | 43 | 42 | 1.0 | 6.0 | 0.00 | 0.00 | 0.00 | 94 | 1014.5 |
| 20260507053506 | 43 | 32 | 1.0 | 3.0 | 0.00 | 0.00 | 0.00 | 94 | 1014.4 |
| 20260507053006 | 43 | 33 | 1.0 | 3.0 | 0.00 | 0.00 | 0.00 | 94 | 1014.5 |
| 20260507052505 | 43 | 33 | 1.0 | 3.0 | 0.00 | 0.00 | 0.00 | 94 | 1014.5 |
| 20260507052006 | 43 | 31 | 1.0 | 2.0 | 0.00 | 0.00 | 0.00 | 94 | 1014.4 |
| 20260507051006 | 42 | 18 | 1.0 | 3.0 | 0.00 | 0.00 | 0.00 | 94 | 1014.4 |
| 20260507050506 | 42 | 0 | 0.0 | 2.0 | 0.00 | 0.00 | 0.00 | 94 | 1014.4 |
| 20260507045506 | 42 | 0 | 0.0 | 2.0 | 0.00 | 0.00 | 0.00 | 94 | 1014.4 |
| 20260507045006 | 42 | 0 | 0.0 | 2.0 | 0.00 | 0.00 | 0.00 | 94 | 1014.4 |
| 20260507044505 | 42 | 0 | 0.0 | 2.0 | 0.00 | 0.00 | 0.00 | 94 | 1014.4 |
| 20260507044005 | 41 | 0 | 0.0 | 2.0 | 0.00 | 0.00 | 0.00 | 94 | 1014.4 |
| 20260507043506 | 41 | 0 | 0.0 | 1.0 | 0.00 | 0.00 | 0.00 | 94 | 1014.4 |
| 20260507043006 | 41 | 0 | 0.0 | 1.0 | 0.00 | 0.00 | 0.00 | 94 | 1014.4 |
| 20260507042506 | 41 | 0 | 0.0 | 1.0 | 0.00 | 0.00 | 0.00 | 94 | 1014.4 |
| 20260507042006 | 41 | 0 | 0.0 | 2.0 | 0.00 | 0.00 | 0.00 | 94 | 1014.4 |
| 20260507041006 | 40 | 0 | 0.0 | 1.0 | 0.00 | 0.00 | 0.00 | 94 | 1014.4 |
| 20260507040506 | 40 | 0 | 0.0 | 1.0 | 0.00 | 0.00 | 0.00 | 94 | 1014.4 |
| 20260507040006 | 40 | 0 | 0.0 | 1.0 | 0.00 | 0.00 | 0.00 | 94 | 1014.4 |
| 20260507035506 | 40 | 0 | 0.0 | 1.0 | 0.00 | 0.00 | 0.00 | 94 | 1014.4 |
| 20260507035006 | 40 | 0 | 0.0 | 1.0 | 0.00 | 0.00 | 0.00 | 94 | 1014.4 |
| 20260507034506 | 39 | 0 | 0.0 | 1.0 | 0.00 | 0.00 | 0.00 | 94 | 1014.4 |
| 20260507034005 | 39 | 0 | 0.0 | 0.0 | 0.00 | 0.00 | 0.00 | 94 | 1014.4 |
| 20260507033506 | 39 | 0 | 0.0 | 0.0 | 0.00 | 0.00 | 0.00 | 94 | 1014.4 |
| 20260507033006 | 39 | 0 | 0.0 | 2.0 | 0.00 | 0.00 | 0.00 | 94 | 1014.3 |
| 20260507032506 | 39 | 0 | 0.0 | 2.0 | 0.00 | 0.00 | 0.00 | 94 | 1014.4 |
| 20260507032005 | 38 | 0 | 0.0 | 2.0 | 0.00 | 0.00 | 0.00 | 94 | 1014.4 |
| 20260507031505 | 38 | 0 | 0.0 | 2.0 | 0.00 | 0.00 | 0.00 | 93 | 1014.3 |
| 20260507030506 | 38 | 0 | 0.0 | 0.0 | 0.00 | 0.00 | 0.00 | 93 | 1014.3 |
| 20260507030006 | 38 | 0 | 0.0 | 0.0 | 0.00 | 0.00 | 0.00 | 93 | 1014.3 |
| 20260507025506 | 38 | 0 | 0.0 | 1.0 | 0.00 | 0.00 | 0.00 | 93 | 1014.3 |
| 20260507025006 | 38 | 0 | 0.0 | 1.0 | 0.00 | 0.00 | 0.00 | 92 | 1014.2 |
| 20260507024506 | 38 | 0 | 0.0 | 2.0 | 0.00 | 0.00 | 0.00 | 92 | 1014.2 |
| 20260507024006 | 38 | 0 | 0.0 | 2.0 | 0.00 | 0.00 | 0.00 | 92 | 1014.2 |
| 20260507023506 | 38 | 0 | 0.0 | 2.0 | 0.00 | 0.00 | 0.00 | 92 | 1014.2 |
| 20260507023006 | 38 | 0 | 0.0 | 1.0 | 0.00 | 0.00 | 0.00 | 92 | 1014.2 |
| 20260507022506 | 38 | 0 | 0.0 | 1.0 | 0.00 | 0.00 | 0.00 | 92 | 1014.2 |
| 20260507022006 | 38 | 0 | 0.0 | 1.0 | 0.00 | 0.00 | 0.00 | 92 | 1014.2 |
| 20260507021006 | 39 | 0 | 0.0 | 2.0 | 0.00 | 0.00 | 0.00 | 92 | 1014.2 |
| 20260507020506 | 39 | 53 | 1.0 | 2.0 | 0.00 | 0.00 | 0.00 | 92 | 1014.2 |
| 20260507020006 | 39 | 52 | 1.0 | 2.0 | 0.00 | 0.00 | 0.00 | 92 | 1014.2 |
| 20260507015506 | 39 | 0 | 0.0 | 2.0 | 0.00 | 0.00 | 0.00 | 91 | 1014.2 |
| 20260507015006 | 39 | 0 | 0.0 | 2.0 | 0.00 | 0.00 | 0.00 | 91 | 1014.2 |
| 20260507014506 | 39 | 0 | 0.0 | 2.0 | 0.00 | 0.00 | 0.00 | 91 | 1014.1 |
| 20260507014006 | 39 | 52 | 1.0 | 2.0 | 0.00 | 0.00 | 0.00 | 91 | 1014.1 |
| 20260507013505 | 39 | 0 | 0.0 | 2.0 | 0.00 | 0.00 | 0.00 | 91 | 1014.1 |
| 20260507013005 | 39 | 0 | 0.0 | 2.0 | 0.00 | 0.00 | 0.00 | 91 | 1014.1 |
| 20260507012508 | 39 | 0 | 0.0 | 2.0 | 0.00 | 0.00 | 0.00 | 91 | 1014.1 |
| 20260507012006 | 40 | 53 | 1.0 | 2.0 | 0.00 | 0.00 | 0.00 | 91 | 1014.1 |
| 20260507011506 | 40 | 54 | 1.0 | 2.0 | 0.00 | 0.00 | 0.00 | 91 | 1014.1 |
| 20260507010506 | 40 | 0 | 0.0 | 3.0 | 0.00 | 0.00 | 0.00 | 90 | 1014.1 |
| 20260507004506 | 40 | 37 | 1.0 | 5.0 | 0.00 | 0.00 | 0.00 | 90 | 1014.2 |
| 20260507004006 | 40 | 38 | 1.0 | 5.0 | 0.00 | 0.00 | 0.00 | 90 | 1014.1 |
| 20260507003506 | 40 | 44 | 1.0 | 3.0 | 0.00 | 0.00 | 0.00 | 90 | 1014.1 |
| 20260507002506 | 40 | 33 | 2.0 | 5.0 | 0.00 | 0.00 | 0.00 | 90 | 1014.2 |
| 20260507001506 | 40 | 0 | 0.0 | 2.0 | 0.00 | 0.00 | 0.00 | 89 | 1014.2 |
| 20260507001006 | 40 | 0 | 0.0 | 2.0 | 0.00 | 0.00 | 0.00 | 89 | 1014.2 |
| 20260507000506 | 41 | 0 | 0.0 | 1.0 | 0.00 | 0.00 | 0.00 | 89 | 1014.2 |
| 20260507000006 | 41 | 0 | 0.0 | 1.0 | 0.00 | 0.00 | 0.00 | 88 | 1014.2 |
| 20260506235506 | 41 | 0 | 0.0 | 0.0 | 0.00 | 0.00 | 0.00 | 88 | 1014.2 |
| 20260506235007 | 41 | 0 | 0.0 | 0.0 | 0.00 | 0.00 | 0.00 | 88 | 1014.2 |
| 20260506234507 | 41 | 0 | 0.0 | 2.0 | 0.00 | 0.00 | 0.00 | 87 | 1014.2 |
| 20260506234006 | 42 | 0 | 0.0 | 2.0 | 0.00 | 0.00 | 0.00 | 87 | 1014.1 |
| 20260506233506 | 42 | 0 | 0.0 | 1.0 | 0.00 | 0.00 | 0.00 | 87 | 1014.1 |
| 20260506233014 | 42 | 0 | 0.0 | 1.0 | 0.00 | 0.00 | 0.00 | 87 | 1014.1 |
| 20260506232506 | 42 | 0 | 0.0 | 1.0 | 0.00 | 0.00 | 0.00 | 87 | 1014.1 |
| 20260506232006 | 42 | 0 | 0.0 | 1.0 | 0.00 | 0.00 | 0.00 | 86 | 1014.1 |
| 20260506231505 | 42 | 0 | 0.0 | 0.0 | 0.00 | 0.00 | 0.00 | 87 | 1014.1 |
| 20260506231005 | 43 | 0 | 0.0 | 0.0 | 0.00 | 0.00 | 0.00 | 86 | 1014.1 |
| 20260506230505 | 43 | 0 | 0.0 | 0.0 | 0.00 | 0.00 | 0.00 | 86 | 1014.1 |
| 20260506230007 | 43 | 0 | 0.0 | 1.0 | 0.00 | 0.00 | 0.00 | 85 | 1014.0 |
| 20260506225506 | 43 | 0 | 0.0 | 1.0 | 0.00 | 0.00 | 0.00 | 84 | 1014.0 |
| 20260506225006 | 43 | 0 | 0.0 | 0.0 | 0.00 | 0.00 | 0.00 | 84 | 1014.0 |
| 20260506224506 | 44 | 0 | 0.0 | 1.0 | 0.00 | 0.00 | 0.00 | 84 | 1014.0 |
| 20260506223506 | 44 | 0 | 0.0 | 2.0 | 0.00 | 0.00 | 0.00 | 84 | 1013.9 |
| 20260506223005 | 44 | 0 | 0.0 | 2.0 | 0.00 | 0.00 | 0.00 | 84 | 1013.9 |
| 20260506222505 | 44 | 0 | 0.0 | 2.0 | 0.00 | 0.00 | 0.00 | 82 | 1013.9 |
| 20260506222006 | 44 | 0 | 0.0 | 2.0 | 0.00 | 0.00 | 0.00 | 82 | 1013.9 |
| 20260506221506 | 44 | 0 | 0.0 | 1.0 | 0.00 | 0.00 | 0.00 | 81 | 1013.9 |
| 20260506221006 | 45 | 0 | 0.0 | 1.0 | 0.00 | 0.00 | 0.00 | 80 | 1013.9 |
| 20260506220006 | 45 | 0 | 0.0 | 1.0 | 0.00 | 0.00 | 0.00 | 79 | 1013.8 |
| 20260506215506 | 46 | 0 | 0.0 | 1.0 | 0.00 | 0.00 | 0.00 | 78 | 1013.8 |
| 20260506215006 | 46 | 0 | 0.0 | 0.0 | 0.00 | 0.00 | 0.00 | 76 | 1013.7 |
| 20260506214506 | 46 | 0 | 0.0 | 0.0 | 0.00 | 0.00 | 0.00 | 76 | 1013.8 |
| 20260506214006 | 46 | 0 | 0.0 | 0.0 | 0.00 | 0.00 | 0.00 | 75 | 1013.8 |
| 20260506213005 | 47 | 0 | 0.0 | 1.0 | 0.00 | 0.00 | 0.00 | 74 | 1013.7 |
| 20260506212506 | 47 | 0 | 0.0 | 2.0 | 0.00 | 0.00 | 0.00 | 73 | 1013.7 |
| 20260506212006 | 48 | 0 | 0.0 | 2.0 | 0.00 | 0.00 | 0.00 | 73 | 1013.7 |
| 20260506210506 | 49 | 25 | 1.0 | 2.0 | 0.00 | 0.00 | 0.00 | 71 | 1013.6 |
| 20260506210006 | 49 | 25 | 1.0 | 2.0 | 0.00 | 0.00 | 0.00 | 70 | 1013.6 |
| 20260506205506 | 50 | 32 | 1.0 | 2.0 | 0.00 | 0.00 | 0.00 | 70 | 1013.6 |
| 20260506205006 | 50 | 0 | 0.0 | 2.0 | 0.00 | 0.00 | 0.00 | 70 | 1013.5 |
| 20260506203505 | 51 | 0 | 0.0 | 2.0 | 0.00 | 0.00 | 0.00 | 69 | 1013.4 |
| 20260506203005 | 51 | 0 | 0.0 | 1.0 | 0.00 | 0.00 | 0.00 | 68 | 1013.3 |
| 20260506202505 | 52 | 0 | 0.0 | 1.0 | 0.00 | 0.00 | 0.00 | 67 | 1013.2 |
| 20260506202006 | 52 | 0 | 0.0 | 2.0 | 0.00 | 0.00 | 0.00 | 66 | 1013.2 |
| 20260506201506 | 53 | 78 | 1.0 | 3.0 | 0.00 | 0.00 | 0.00 | 66 | 1013.1 |
| 20260506201006 | 53 | 71 | 1.0 | 3.0 | 0.00 | 0.00 | 0.00 | 65 | 1013.0 |
| 20260506200506 | 53 | 57 | 1.0 | 3.0 | 0.00 | 0.00 | 0.00 | 64 | 1013.0 |
| 20260506200006 | 53 | 49 | 1.0 | 3.0 | 0.00 | 0.00 | 0.00 | 63 | 1012.9 |
| 20260506195506 | 54 | 0 | 0.0 | 2.0 | 0.00 | 0.00 | 0.00 | 62 | 1012.9 |
| 20260506195005 | 54 | 0 | 0.0 | 2.0 | 0.00 | 0.00 | 0.00 | 61 | 1012.9 |
| 20260506194505 | 54 | 51 | 1.0 | 3.0 | 0.00 | 0.00 | 0.00 | 61 | 1012.9 |
| 20260506193506 | 55 | 59 | 2.0 | 5.0 | 0.00 | 0.00 | 0.00 | 60 | 1012.7 |
| 20260506193006 | 55 | 60 | 1.0 | 3.0 | 0.00 | 0.00 | 0.00 | 60 | 1012.7 |
| 20260506192506 | 55 | 57 | 2.0 | 5.0 | 0.00 | 0.00 | 0.00 | 59 | 1012.7 |
| 20260506192006 | 55 | 54 | 2.0 | 5.0 | 0.00 | 0.00 | 0.00 | 58 | 1012.7 |
| 20260506191506 | 56 | 55 | 2.0 | 5.0 | 0.00 | 0.00 | 0.00 | 58 | 1012.7 |
| 20260506191006 | 56 | 57 | 2.0 | 6.0 | 0.00 | 0.00 | 0.00 | 56 | 1012.6 |
| 20260506190506 | 56 | 40 | 2.0 | 7.0 | 0.00 | 0.00 | 0.00 | 55 | 1012.6 |
| 20260506190006 | 56 | 20 | 2.0 | 7.0 | 0.00 | 0.00 | 0.00 | 55 | 1012.5 |
| 20260506185505 | 56 | 19 | 1.0 | 5.0 | 0.00 | 0.00 | 0.00 | 55 | 1012.5 |
| 20260506185006 | 56 | 15 | 2.0 | 5.0 | 0.00 | 0.00 | 0.00 | 55 | 1012.5 |
| 20260506184506 | 56 | 17 | 2.0 | 6.0 | 0.00 | 0.00 | 0.00 | 54 | 1012.5 |
| 20260506184006 | 57 | 32 | 2.0 | 6.0 | 0.00 | 0.00 | 0.00 | 53 | 1012.4 |
| 20260506183506 | 57 | 30 | 2.0 | 6.0 | 0.00 | 0.00 | 0.00 | 53 | 1012.4 |
| 20260506183006 | 57 | 22 | 2.0 | 6.0 | 0.00 | 0.00 | 0.00 | 53 | 1012.3 |
| 20260506182506 | 57 | 15 | 2.0 | 6.0 | 0.00 | 0.00 | 0.00 | 53 | 1012.3 |
| 20260506182006 | 57 | 11 | 2.0 | 6.0 | 0.00 | 0.00 | 0.00 | 53 | 1012.4 |
| 20260506181006 | 58 | 22 | 4.0 | 7.0 | 0.00 | 0.00 | 0.00 | 52 | 1012.4 |
| 20260506180505 | 58 | 27 | 4.0 | 6.0 | 0.00 | 0.00 | 0.00 | 51 | 1012.3 |
| 20260506180006 | 58 | 33 | 2.0 | 5.0 | 0.00 | 0.00 | 0.00 | 50 | 1012.2 |
| 20260506175506 | 58 | 32 | 2.0 | 5.0 | 0.00 | 0.00 | 0.00 | 51 | 1012.1 |
| 20260506175006 | 58 | 32 | 2.0 | 5.0 | 0.00 | 0.00 | 0.00 | 51 | 1012.0 |
| 20260506174506 | 58 | 49 | 2.0 | 5.0 | 0.00 | 0.00 | 0.00 | 50 | 1012.0 |
| 20260506174006 | 58 | 57 | 4.0 | 9.0 | 0.00 | 0.00 | 0.00 | 51 | 1012.0 |
| 20260506173005 | 58 | 46 | 2.0 | 8.0 | 0.00 | 0.00 | 0.00 | 50 | 1012.0 |
| 20260506172506 | 58 | 32 | 2.0 | 6.0 | 0.00 | 0.00 | 0.00 | 51 | 1012.0 |
| 20260506171506 | 58 | 16 | 4.0 | 11.0 | 0.00 | 0.00 | 0.00 | 51 | 1011.9 |
| 20260506171006 | 58 | 351 | 4.0 | 11.0 | 0.00 | 0.00 | 0.00 | 50 | 1011.9 |
| 20260506170505 | 59 | 327 | 4.0 | 10.0 | 0.00 | 0.00 | 0.00 | 50 | 1011.9 |
| 20260506165506 | 59 | 23 | 4.0 | 11.0 | 0.00 | 0.00 | 0.00 | 51 | 1012.0 |
| 20260506165006 | 59 | 34 | 4.0 | 11.0 | 0.00 | 0.00 | 0.00 | 52 | 1012.0 |
| 20260506164006 | 59 | 13 | 4.0 | 8.0 | 0.00 | 0.00 | 0.00 | 50 | 1012.0 |
| 20260506163006 | 59 | 26 | 2.0 | 5.0 | 0.00 | 0.00 | 0.00 | 50 | 1011.9 |
| 20260506162506 | 59 | 351 | 2.0 | 8.0 | 0.00 | 0.00 | 0.00 | 50 | 1012.0 |
| 20260506162006 | 59 | 354 | 4.0 | 8.0 | 0.00 | 0.00 | 0.00 | 49 | 1012.0 |
| 20260506161006 | 59 | 10 | 4.0 | 9.0 | 0.00 | 0.00 | 0.00 | 48 | 1012.0 |
| 20260506160505 | 59 | 13 | 4.0 | 9.0 | 0.00 | 0.00 | 0.00 | 49 | 1011.9 |
| 20260506160006 | 59 | 354 | 2.0 | 8.0 | 0.00 | 0.00 | 0.00 | 48 | 1011.9 |
| 20260506155506 | 59 | 357 | 4.0 | 7.0 | 0.00 | 0.00 | 0.00 | 46 | 1012.0 |
| 20260506155006 | 60 | 347 | 2.0 | 7.0 | 0.00 | 0.00 | 0.00 | 47 | 1012.0 |
| 20260506154505 | 60 | 347 | 4.0 | 8.0 | 0.00 | 0.00 | 0.00 | 48 | 1012.0 |
| 20260506153505 | 60 | 2 | 4.0 | 8.0 | 0.00 | 0.00 | 0.00 | 47 | 1012.0 |
| 20260506153006 | 60 | 20 | 4.0 | 8.0 | 0.00 | 0.00 | 0.00 | 49 | 1012.1 |
| 20260506152005 | 59 | 9 | 2.0 | 8.0 | 0.00 | 0.00 | 0.00 | 48 | 1012.1 |
| 20260506151006 | 60 | 28 | 5.0 | 9.0 | 0.00 | 0.00 | 0.00 | 48 | 1012.1 |
| 20260506150506 | 60 | 22 | 6.0 | 10.0 | 0.00 | 0.00 | 0.00 | 48 | 1012.2 |
| 20260506150005 | 60 | 14 | 6.0 | 10.0 | 0.00 | 0.00 | 0.00 | 47 | 1012.1 |
| 20260506145506 | 60 | 8 | 4.0 | 10.0 | 0.00 | 0.00 | 0.00 | 45 | 1012.2 |
| 20260506145006 | 60 | 14 | 4.0 | 6.0 | 0.00 | 0.00 | 0.00 | 47 | 1012.2 |
| 20260506144505 | 60 | 26 | 4.0 | 8.0 | 0.00 | 0.00 | 0.00 | 46 | 1012.3 |
| 20260506143506 | 61 | 354 | 5.0 | 11.0 | 0.00 | 0.00 | 0.00 | 46 | 1012.3 |
| 20260506142506 | 62 | 334 | 4.0 | 10.0 | 0.00 | 0.00 | 0.00 | 44 | 1012.3 |
| 20260506142006 | 61 | 351 | 5.0 | 9.0 | 0.00 | 0.00 | 0.00 | 44 | 1012.3 |
| 20260506141505 | 61 | 349 | 5.0 | 10.0 | 0.00 | 0.00 | 0.00 | 45 | 1012.3 |
| 20260506141006 | 61 | 340 | 4.0 | 10.0 | 0.00 | 0.00 | 0.00 | 46 | 1012.3 |
| 20260506140506 | 61 | 349 | 5.0 | 9.0 | 0.00 | 0.00 | 0.00 | 46 | 1012.3 |
| 20260506140006 | 61 | 359 | 6.0 | 14.0 | 0.00 | 0.00 | 0.00 | 44 | 1012.3 |
| 20260506135505 | 62 | 7 | 5.0 | 16.0 | 0.00 | 0.00 | 0.00 | 44 | 1012.4 |
| 20260506135006 | 62 | 38 | 5.0 | 16.0 | 0.00 | 0.00 | 0.00 | 43 | 1012.3 |
| 20260506134506 | 63 | 69 | 6.0 | 13.0 | 0.00 | 0.00 | 0.00 | 44 | 1012.3 |
| 20260506133506 | 62 | 65 | 7.0 | 13.0 | 0.00 | 0.00 | 0.00 | 45 | 1012.3 |
| 20260506133006 | 63 | 61 | 6.0 | 16.0 | 0.00 | 0.00 | 0.00 | 43 | 1012.4 |
| 20260506132506 | 63 | 57 | 5.0 | 16.0 | 0.00 | 0.00 | 0.00 | 42 | 1012.3 |
| 20260506132006 | 63 | 55 | 6.0 | 10.0 | 0.00 | 0.00 | 0.00 | 42 | 1012.3 |